Miscellaneous Local Product
Issued by NWS Hastings, NE

Home | Current Version | Previous Version | Text Only | Print | Product List | Glossary Off
Versions: 1 2 3 4 5 6 7 8 9 10 11 12 13 14 15 16 17 18 19 20 21 22 23 24 25 26 27 28 29 30 31 32 33 34 35 36 37 38 39 40 41 42 43 44 45 46 47 48 49 50

567
AXUS43 KGID 200102
MISGRI

GID CWA HOURLY WEATHER ROUNDUP
NATIONAL WEATHER SERVICE HASTINGS NE
700 PM CST THU JAN 19 2017

NOTE: "FAIR" INDICATES FEW OR NO CLOUDS BELOW 12,000 FEET WITH NO
SIGNIFICANT WEATHER AND/OR OBSTRUCTIONS TO VISIBILITY.

...SOUTH CENTRAL NEBRASKA...

CITY           SKY/WX    TMP DP  RH WIND       PRES   REMARKS
GRAND ISLAND   CLOUDY    39  39 100 S5        29.61F FOG
HASTINGS       FOG       40  39  97 SE5       29.62S VSB 1/2
KEARNEY        CLOUDY    39  36  87 SE7       29.58F WCI  34
ORD            CLOUDY    40  38  93 S8        29.56F WCI  34
YORK           FOG       39  39 100 CALM      29.64S VSB 1/2
AURORA         FOG       38  38 100 SE3       29.62S VSB 1/2
LEXINGTON      CLOUDY    39  37  94 S6        29.56F FOG     WCI  35
HOLDREGE       CLOUDY    39  38  97 SE5       29.58S FOG
HEBRON         FOG       41  41  99 CALM      29.64R VSB 3/4

...NEBRASKA PANHANDLE...

CITY           SKY/WX    TMP DP  RH WIND       PRES   REMARKS
CHADRON        CLOUDY    32  25  75 W3        29.49S
ALLIANCE       CLOUDY    37  25  61 W3        29.49R
SCOTTSBLUFF    CLEAR     40  25  55 W7        29.51R
SIDNEY         CLEAR     32  24  72 SW12      29.52R WCI  23

...WESTERN AND NORTH CENTRAL NEBRASKA...

CITY           SKY/WX    TMP DP  RH WIND       PRES   REMARKS
VALENTINE      CLEAR     38  31  76 S10       29.48S WCI  31
AINSWORTH      CLOUDY    37  37  99 S14       29.50S WCI  28
ONEILL         CLOUDY    41  40  98 S9        29.55F FOG
BROKEN BOW     CLOUDY    40  38  93 S8        29.55S WCI  34
IMPERIAL       FOG       34  34 100 SE10      29.54S VSB 1/4 WCI  26
NORTH PLATTE   CLOUDY    38  36  92 S9        29.55S WCI  31
MCCOOK         MOCLDY    35  35 100 CALM      29.56S FOG

...EASTERN NEBRASKA...

CITY           SKY/WX    TMP DP  RH WIND       PRES   REMARKS
NORFOLK        CLOUDY    39  37  92 SE8       29.61F FOG     WCI  33
SO SIOUX CITY  FOG       39  39 100 SE5       29.66S VSB 1/2
TEKAMAH        FOG       38  37  97 CALM      29.67S VSB 1/4
COLUMBUS       CLOUDY    39  37  93 SE5       29.65S
ALBION         CLOUDY   N/A N/A N/A SE7       29.60F FOG
OMAHA EPPLEY   FOG       42  38  85 CALM      29.66S VSB 1/2
OFFUTT AFB     DRZL/FOG  40  40 100 CALM      29.66S VSB 3/8
MILLARD        DRZL/FOG  43  42  97 CALM      29.66S VSB 1/4
LINCOLN        FOG       41  41 100 CALM      29.66R VSB 1/2
NEBRASKA CITY  FOG       41  41 100 CALM      29.65F VSB 1/4
BEATRICE       FOG       41  41 100 CALM      29.64S VSB 3/4
FALLS CITY     FOG       43  42  97 CALM      29.65R VSB 1/4

...NORTHERN KANSAS...

CITY           SKY/WX    TMP DP  RH WIND       PRES   REMARKS
GOODLAND       CLOUDY    35  35 100 SE10      29.55R FOG     WCI  27
HILL CITY      PTCLDY    39  39 100 E6        29.57F FOG     WCI  35
NORTON         CLEAR     37  34  87 E5        29.56F FOG     WCI  34
PHILLIPSBURG   FOG       43  43 100 NE6       29.59F VSB 1/2
SMITH CENTER   FOG       39  39 100 E5        29.61S VSB 1/2
HAYS           CLOUDY    43  42  97 E6        29.59S FOG
RUSSELL        CLOUDY    44  43  96 E6        29.58R FOG
CONCORDIA      FOG       42  42 100 E3        29.62S VSB 1/2
SALINA         CLOUDY    46  45  96 E3        29.62S
TOPEKA         LGT RAIN  47  44  90 CALM      29.64S



USA.gov is the U.S. government's official web portal to all federal, state and local government web resources and services.